OPS 4947 (TRANSIT 17)

Last updated on Sat Sep 05 2026 00:03:34 GMT+0000 (Coordinated Universal Time)

1 02965U 67092A 26247.27818565 .00000075 00000+0 93821-4 0 9997 2 02965 89.2611 4.3251 0047804 182.4041 207.5356 13.53510875906897
UTC large
Height (km)
Speed (km/s)
/
Latitude / Longitude
Inclination (degrees)
Orbital Period (minutes)
Azimuth
Elevation
Range (km)
Doppler Factor

Next 0 passes for location: London (51.5072 / 0.1276)

No passes found over London.
OPS 4947 (TRANSIT 17)